{"data":{"norad_id":68309,"intl_designator":"2026-057R","name":"STARLINK-37149","alt_names":[],"object_type":"PAYLOAD","status":"ACTIVE","operator":null,"country":"US","launch_date":"2026-03-20","launch_site_code":"AFWTR","launch_vehicle":null,"mission":null,"orbit_class":"UNKNOWN","rcs_meters":null,"size_class":null,"mass_kg":null,"dimensions":null,"purposes":["comms"],"wikipedia_slug":null,"has_3d_model":false,"image_url":null,"decayed_at":null,"tle_current":{"epoch":"2026-09-19T07:30:11.049696Z","epoch_age_seconds":151002,"freshness":"FRESH","line1":"1 68309U 26057R   26262.31262789  .00021951  00000+0  68020-3 0  9998","line2":"2 68309  97.2880  27.7619 0000228 328.9827  31.1402 15.33449818 28338","mean_motion":15.33449818,"eccentricity":2.28e-5,"inclination_deg":97.288,"raan_deg":27.7619,"arg_perigee_deg":328.9827,"mean_anomaly_deg":31.1402,"bstar":0.0006802,"rev_number":2833,"period_min":93.905909609622,"perigee_km":465.37280395627,"apogee_km":465.68487511856,"semimajor_km":6843.6658395374,"source":"CELESTRAK","updated_at":"2026-09-20T09:00:43.878918Z"}}}